TIANMU-1 13

Last updated on Wed Sep 17 2025 00:02:23 GMT+0000 (Coordinated Universal Time)

1 58647U 23205C 25259.59748284 .00006226 00000+0 26796-3 0 9990 2 58647 97.3719 280.7971 0007348 200.3071 159.7874 15.22947872 95807
UTC large
Height (km)
Speed (km/s)
/
Latitude / Longitude
Inclination (degrees)
Orbital Period (minutes)
Azimuth
Elevation
Range (km)
Doppler Factor

Next 0 passes for location: London (51.5072 / 0.1276)

Sorry there are no passes over London.